TimeAKDT,TemperatureF,Dew PointF,Humidity,Sea Level PressureIn,VisibilityMPH,Wind Direction,Wind SpeedMPH,Gust SpeedMPH,PrecipitationIn,Events,Conditions,WindDirDegrees,DateUTC
12:16 AM,42.8,37.4,81,28.95,10.0,Calm,Calm,-,N/A,,Overcast,0,2013-09-22 08:16:00
12:36 AM,42.8,37.4,81,28.95,10.0,Calm,Calm,-,N/A,,Overcast,0,2013-09-22 08:36:00
12:56 AM,39.2,37.4,93,28.95,10.0,WSW,3.5,-,N/A,,Overcast,250,2013-09-22 08:56:00
1:16 AM,39.2,37.4,93,28.95,10.0,West,4.6,-,N/A,,Overcast,280,2013-09-22 09:16:00
1:36 AM,39.2,37.4,93,28.95,10.0,WNW,3.5,-,N/A,,Mostly Cloudy,300,2013-09-22 09:36:00
1:56 AM,41.0,33.8,76,28.96,10.0,NNW,5.8,-,N/A,,Partly Cloudy,330,2013-09-22 09:56:00
2:16 AM,41.0,32.0,70,28.96,10.0,NNW,4.6,-,N/A,,Clear,330,2013-09-22 10:16:00
2:36 AM,41.0,30.2,65,28.96,10.0,NNW,3.5,-,N/A,,Mostly Cloudy,330,2013-09-22 10:36:00
2:56 AM,42.8,30.2,61,28.96,10.0,NNW,3.5,-,N/A,,Overcast,330,2013-09-22 10:56:00
3:16 AM,42.8,28.4,57,28.96,10.0,Calm,Calm,-,N/A,,Overcast,0,2013-09-22 11:16:00
3:36 AM,42.8,28.4,57,28.97,10.0,NE,4.6,-,N/A,,Overcast,40,2013-09-22 11:36:00
3:56 AM,39.2,30.2,70,28.98,10.0,Calm,Calm,-,N/A,,Mostly Cloudy,0,2013-09-22 11:56:00
4:16 AM,37.4,30.2,75,28.98,10.0,Calm,Calm,-,N/A,,Partly Cloudy,0,2013-09-22 12:16:00
4:36 AM,35.6,32.0,87,28.99,10.0,Calm,Calm,-,N/A,,Mostly Cloudy,0,2013-09-22 12:36:00
4:56 AM,35.6,30.2,81,28.99,10.0,Calm,Calm,-,N/A,,Overcast,0,2013-09-22 12:56:00
5:16 AM,35.6,30.2,81,29.00,10.0,Calm,Calm,-,N/A,,Overcast,0,2013-09-22 13:16:00
5:36 AM,37.4,32.0,81,29.00,10.0,Calm,Calm,-,N/A,,Overcast,0,2013-09-22 13:36:00
5:56 AM,35.6,32.0,87,29.00,10.0,Calm,Calm,-,N/A,,Overcast,0,2013-09-22 13:56:00
6:16 AM,35.6,32.0,87,29.01,10.0,Calm,Calm,-,N/A,,Overcast,0,2013-09-22 14:16:00
6:36 AM,35.6,32.0,87,29.01,10.0,Calm,Calm,-,N/A,,Overcast,0,2013-09-22 14:36:00
6:56 AM,35.6,32.0,87,29.02,10.0,Calm,Calm,-,N/A,,Overcast,0,2013-09-22 14:56:00
7:16 AM,35.6,30.2,81,29.02,10.0,Calm,Calm,-,N/A,,Overcast,0,2013-09-22 15:16:00
7:36 AM,35.6,30.2,81,29.03,10.0,Calm,Calm,-,N/A,,Mostly Cloudy,0,2013-09-22 15:36:00
7:56 AM,33.8,30.2,87,29.04,10.0,Calm,Calm,-,N/A,,Overcast,0,2013-09-22 15:56:00
8:16 AM,33.8,30.2,87,29.05,10.0,Calm,Calm,-,N/A,,Overcast,0,2013-09-22 16:16:00
8:36 AM,35.6,30.2,81,29.05,10.0,Calm,Calm,-,N/A,,Overcast,0,2013-09-22 16:36:00
8:56 AM,37.4,26.6,65,29.06,10.0,NNW,3.5,-,N/A,,Overcast,340,2013-09-22 16:56:00
9:16 AM,39.2,24.8,56,29.06,10.0,North,4.6,-,N/A,,Overcast,350,2013-09-22 17:16:00
9:36 AM,39.2,24.8,56,29.07,10.0,NNE,6.9,-,N/A,,Overcast,20,2013-09-22 17:36:00
9:56 AM,41.0,24.8,53,29.08,10.0,North,5.8,-,N/A,,Overcast,10,2013-09-22 17:56:00
10:16 AM,42.8,23.0,46,29.08,10.0,NNE,6.9,-,N/A,,Overcast,20,2013-09-22 18:16:00
10:36 AM,42.8,21.2,42,29.09,10.0,NNE,9.2,17.3,N/A,,Overcast,30,2013-09-22 18:36:00
10:56 AM,42.8,21.2,42,29.10,10.0,NNE,11.5,17.3,N/A,,Overcast,30,2013-09-22 18:56:00
11:16 AM,42.8,21.2,42,29.10,10.0,NNE,8.1,16.1,N/A,,Overcast,30,2013-09-22 19:16:00
11:36 AM,42.8,21.2,42,29.11,10.0,NNE,8.1,18.4,N/A,,Overcast,30,2013-09-22 19:36:00
11:56 AM,42.8,24.8,49,29.11,10.0,NE,10.4,-,N/A,,Overcast,50,2013-09-22 19:56:00
12:16 PM,42.8,24.8,49,29.12,10.0,NE,9.2,-,N/A,,Overcast,40,2013-09-22 20:16:00
12:36 PM,42.8,24.8,49,29.13,10.0,ENE,9.2,-,N/A,,Overcast,60,2013-09-22 20:36:00
12:56 PM,42.8,24.8,49,29.13,10.0,NE,8.1,-,N/A,,Overcast,40,2013-09-22 20:56:00
1:16 PM,42.8,24.8,49,29.14,10.0,NE,6.9,-,N/A,,Overcast,40,2013-09-22 21:16:00
1:36 PM,44.6,24.8,46,29.14,10.0,ENE,10.4,-,N/A,,Overcast,60,2013-09-22 21:36:00
1:56 PM,44.6,24.8,46,29.14,10.0,NNE,9.2,-,N/A,,Overcast,20,2013-09-22 21:56:00
2:16 PM,44.6,21.2,39,29.15,10.0,ENE,10.4,-,N/A,,Overcast,60,2013-09-22 22:16:00
2:36 PM,44.6,24.8,46,29.15,10.0,NNE,9.2,-,N/A,,Overcast,30,2013-09-22 22:36:00
2:56 PM,42.8,26.6,53,29.16,10.0,East,9.2,-,N/A,,Overcast,100,2013-09-22 22:56:00
3:16 PM,42.8,28.4,57,29.17,10.0,ESE,11.5,17.3,N/A,,Overcast,120,2013-09-22 23:16:00
3:36 PM,42.8,30.2,61,29.18,10.0,East,12.7,-,N/A,,Overcast,90,2013-09-22 23:36:00
3:56 PM,41.0,28.4,61,29.18,10.0,East,9.2,-,N/A,,Overcast,100,2013-09-22 23:56:00
4:16 PM,41.0,28.4,61,29.18,10.0,East,10.4,-,N/A,,Overcast,100,2013-09-23 00:16:00
4:36 PM,42.8,28.4,57,29.19,10.0,East,10.4,-,N/A,,Overcast,100,2013-09-23 00:36:00
4:56 PM,42.8,28.4,57,29.19,10.0,East,9.2,-,N/A,,Overcast,100,2013-09-23 00:56:00
5:16 PM,42.8,28.4,57,29.19,10.0,East,10.4,-,N/A,,Overcast,90,2013-09-23 01:16:00
5:36 PM,42.8,28.4,57,29.20,10.0,ESE,6.9,-,N/A,,Overcast,120,2013-09-23 01:36:00
5:56 PM,42.8,28.4,57,29.21,10.0,SE,6.9,-,N/A,,Overcast,130,2013-09-23 01:56:00
6:16 PM,42.8,28.4,57,29.21,10.0,ESE,3.5,-,N/A,,Overcast,120,2013-09-23 02:16:00
6:36 PM,42.8,28.4,57,29.21,10.0,SE,3.5,-,N/A,,Overcast,140,2013-09-23 02:36:00
6:56 PM,42.8,28.4,57,29.22,10.0,Calm,Calm,-,N/A,,Overcast,0,2013-09-23 02:56:00
7:16 PM,42.8,28.4,57,29.22,10.0,Calm,Calm,-,N/A,,Overcast,0,2013-09-23 03:16:00
7:36 PM,42.8,28.4,57,29.23,10.0,Calm,Calm,-,N/A,,Overcast,0,2013-09-23 03:36:00
7:56 PM,41.0,30.2,65,29.24,10.0,Calm,Calm,-,N/A,,Mostly Cloudy,0,2013-09-23 03:56:00
8:16 PM,41.0,28.4,61,29.24,10.0,Calm,Calm,-,N/A,,Partly Cloudy,0,2013-09-23 04:16:00
8:36 PM,39.2,28.4,65,29.25,10.0,Calm,Calm,-,N/A,,Clear,0,2013-09-23 04:36:00
8:56 PM,37.4,28.4,70,29.26,10.0,Calm,Calm,-,N/A,,Clear,0,2013-09-23 04:56:00
9:16 PM,37.4,28.4,70,29.26,10.0,Calm,Calm,-,N/A,,Clear,0,2013-09-23 05:16:00
9:36 PM,35.6,28.4,75,29.27,10.0,Calm,Calm,-,N/A,,Clear,0,2013-09-23 05:36:00
9:56 PM,33.8,28.4,81,29.27,10.0,Calm,Calm,-,N/A,,Clear,0,2013-09-23 05:56:00
10:16 PM,35.6,26.6,70,29.28,10.0,Calm,Calm,-,N/A,,Clear,0,2013-09-23 06:16:00
10:36 PM,35.6,26.6,70,29.29,10.0,Calm,Calm,-,N/A,,Clear,0,2013-09-23 06:36:00
10:56 PM,35.6,26.6,70,29.29,10.0,Calm,Calm,-,N/A,,Clear,0,2013-09-23 06:56:00
11:16 PM,35.6,26.6,70,29.30,10.0,Calm,Calm,-,N/A,,Clear,0,2013-09-23 07:16:00
11:36 PM,37.4,24.8,60,29.30,10.0,Calm,Calm,-,N/A,,Clear,0,2013-09-23 07:36:00
11:56 PM,39.2,23.0,52,29.31,10.0,NE,5.8,-,N/A,,Clear,40,2013-09-23 07:56:00